Погода в Витория-да-Конкиста

Бразилия     14°51′12″S   40°51′29″W
темп.,
°C
ветер,
м/с
пор.,
м/с
влажн.,
%
обл.,
%
осадки,
мм/ч
давл.,
гПа
погр.,
м
27 февраля, сб
сб2700:00+17в3898100 0.0 1014297
03:00+16вюв279996 0.0 1014239
06:00+16вюв2599100 0.0 1014211
09:00+22всв257281 0.0 1016726
12:00+25в236397 0.3 10141219
15:00+23в247991 2.9 1011800
18:00+19в399396 3.0 1011455
21:00+18в5109683 3.1 1014428
28 февраля, вс
вс2800:00+16вюв3109658 0.0 1014309
03:00+16юв269679 0.0 1013132
06:00+16юв3896100 0.0 1014242
09:00+21вюв587997 0.0 1014736
12:00+24вюв4566100 0.1 10131114
15:00+22вюв478799 4.3 1010720
18:00+19вюв4109471 1.1 1011560
21:00+18вюв4119150 1.1 1013452
1 марта, пн
пн100:00+17вюв41095100 0.0 1013452
03:00+18вюв499489 0.0 1012505
06:00+18юв4994100 0.0 1013528
09:00+21вюв598298 0.1 1014722
12:00+24юв577370 0.4 1013893
15:00+25юв576453 0.6 10101126
18:00+21в4108072 0.1 1011735
21:00+18вюв5137941 0.1 1014639
2 марта, вт
вт200:00+16в3109538 0.0 1015536
03:00+15вюв399842 0.0 1014421
06:00+17в499593 0.0 1015577
09:00+21в596877 0.0 1016806
12:00+25в57500 0.0 10141325
15:00+25вюв57530 0.0 10121432
18:00+20вюв4117169 0.0 1012476
21:00+17в5119366 0.0 1015502
3 марта, ср
ср300:00+16в4109815 0.0 1017454
03:00+17в269552 0.0 1015406
06:00+18юв269697 0.3 1017272
09:00+19юв269295 0.6 1018536
12:00+25в346257 0.3 10161158
15:00+25вюв347159 1.2 10131052
18:00+20вюв489133 0.9 1013371
21:00+18вюв4109619 1.0 1016379